SSL567 KDEN-KLAS

Flight info

Callsign SSL567
Flight time N/A
Altitude 34000
Route CONNR8 WERNR ZAKRY CHESZ GGAPP CHOWW4
Aircraft A320/M-SDE3FGHIRWY/LB1

Departure

Time 2026-05-07 03:10
Airport Denver International Airport (KDEN)

Arrival

Time N/A
Airport Harry Reid International Airport (KLAS)
Time Latitude Longitude Altitude Speed Heading
2026-05-07 02:50 39.86264 -104.67687 5374 ft 0 kts 360°
2026-05-07 02:58 39.86248 -104.67687 5368 ft 3 kts 360°
2026-05-07 02:58 39.86230 -104.67687 5370 ft 3 kts 360°
2026-05-07 02:58 39.86212 -104.67687 5365 ft 3 kts 351°
2026-05-07 02:58 39.86195 -104.67680 5372 ft 3 kts 315°
2026-05-07 02:59 39.86192 -104.67675 5372 ft 0 kts 306°
2026-05-07 02:59 39.86192 -104.67676 5372 ft 0 kts 307°
2026-05-07 02:59 39.86197 -104.67682 5373 ft 1 kts 312°
2026-05-07 02:59 39.86198 -104.67686 5373 ft 0 kts 298°
2026-05-07 03:00 39.86198 -104.67690 5373 ft 1 kts 288°
2026-05-07 03:00 39.86198 -104.67694 5369 ft 0 kts 277°
2026-05-07 03:00 39.86199 -104.67696 5369 ft 1 kts 276°
2026-05-07 03:01 39.86197 -104.67707 5371 ft 2 kts 262°
2026-05-07 03:01 39.86192 -104.67736 5369 ft 5 kts 252°
2026-05-07 03:01 39.86162 -104.67778 5371 ft 8 kts 212°
2026-05-07 03:01 39.86116 -104.67805 5370 ft 8 kts 136°
2026-05-07 03:02 39.86110 -104.67722 5371 ft 11 kts 76°
2026-05-07 03:02 39.86132 -104.67608 5374 ft 15 kts 85°
2026-05-07 03:02 39.86134 -104.67460 5374 ft 18 kts 90°
2026-05-07 03:02 39.86129 -104.67291 5376 ft 19 kts 90°
2026-05-07 03:03 39.86126 -104.67116 5377 ft 19 kts 92°
2026-05-07 03:03 39.86129 -104.66941 5378 ft 19 kts 90°
2026-05-07 03:03 39.86128 -104.66769 5381 ft 19 kts 90°
2026-05-07 03:03 39.86126 -104.66628 5381 ft 14 kts 93°
2026-05-07 03:04 39.86112 -104.66519 5383 ft 11 kts 100°
2026-05-07 03:04 39.86109 -104.66491 5384 ft 0 kts 95°
2026-05-07 03:04 39.86109 -104.66486 5384 ft 3 kts 95°
2026-05-07 03:04 39.86107 -104.66418 5386 ft 9 kts 91°
2026-05-07 03:05 39.86106 -104.66337 5388 ft 9 kts 91°
2026-05-07 03:05 39.86118 -104.66253 5388 ft 12 kts 54°
2026-05-07 03:05 39.86224 -104.66230 5384 ft 20 kts 360°
2026-05-07 03:05 39.86386 -104.66228 5379 ft 19 kts 360°
2026-05-07 03:06 39.86487 -104.66193 5377 ft 16 kts 57°
2026-05-07 03:06 39.86499 -104.66036 5380 ft 20 kts 90°
2026-05-07 03:06 39.86497 -104.65833 5376 ft 23 kts 91°
2026-05-07 03:06 39.86496 -104.65623 5373 ft 23 kts 95°
2026-05-07 03:07 39.86493 -104.65407 5372 ft 24 kts 90°
2026-05-07 03:07 39.86493 -104.65178 5362 ft 24 kts 90°
2026-05-07 03:07 39.86491 -104.64950 5357 ft 27 kts 90°
2026-05-07 03:07 39.86490 -104.64741 5346 ft 24 kts 91°
2026-05-07 03:08 39.86489 -104.64516 5337 ft 22 kts 90°
2026-05-07 03:08 39.86487 -104.64359 5335 ft 17 kts 90°
2026-05-07 03:08 39.86488 -104.64280 5333 ft 0 kts 89°
2026-05-07 03:08 39.86488 -104.64278 5333 ft 1 kts 90°
2026-05-07 03:09 39.86487 -104.64236 5333 ft 8 kts 91°
2026-05-07 03:09 39.86455 -104.64141 5333 ft 15 kts 149°
2026-05-07 03:09 39.86307 -104.64132 5338 ft 45 kts 180°
2026-05-07 03:09 39.85740 -104.64142 5351 ft 114 kts 180°
2026-05-07 03:10 39.84757 -104.64152 5362 ft 166 kts 181°
2026-05-07 03:10 39.83536 -104.64265 5913 ft 179 kts 195°
2026-05-07 03:10 39.82405 -104.64983 6480 ft 194 kts 218°
2026-05-07 03:10 39.81664 -104.66609 6363 ft 236 kts 258°
2026-05-07 03:11 39.81620 -104.68837 6039 ft 256 kts 274°
2026-05-07 03:11 39.81896 -104.71183 6012 ft 268 kts 279°
2026-05-07 03:11 39.82263 -104.73580 6020 ft 272 kts 279°
2026-05-07 03:11 39.82631 -104.76020 6794 ft 274 kts 278°
2026-05-07 03:12 39.82966 -104.78456 7679 ft 273 kts 278°
2026-05-07 03:12 39.83267 -104.80899 8555 ft 273 kts 279°
2026-05-07 03:12 39.83543 -104.83349 9414 ft 274 kts 279°
2026-05-07 03:12 39.83803 -104.85796 10248 ft 274 kts 280°
2026-05-07 03:13 39.84055 -104.88256 10995 ft 275 kts 281°
2026-05-07 03:13 39.84451 -104.90737 11321 ft 289 kts 293°
2026-05-07 03:13 39.85288 -104.93226 11478 ft 309 kts 297°
2026-05-07 03:13 39.86220 -104.95795 11979 ft 317 kts 297°
2026-05-07 03:14 39.87121 -104.98437 12595 ft 322 kts 290°
2026-05-07 03:14 39.87481 -105.01351 13201 ft 330 kts 278°
2026-05-07 03:14 39.87722 -105.06368 14181 ft 337 kts 277°
2026-05-07 03:15 39.87885 -105.10440 14870 ft 343 kts 277°
2026-05-07 03:15 39.88004 -105.13554 15388 ft 346 kts 277°
2026-05-07 03:15 39.88121 -105.16702 15911 ft 350 kts 277°
2026-05-07 03:15 39.88235 -105.19880 16427 ft 353 kts 277°
2026-05-07 03:16 39.88227 -105.23090 17083 ft 358 kts 267°
2026-05-07 03:16 39.87832 -105.25243 17507 ft 366 kts 255°
2026-05-07 03:16 39.86666 -105.28182 18056 ft 374 kts 245°
2026-05-07 03:16 39.85329 -105.31107 18585 ft 377 kts 244°
2026-05-07 03:17 39.83963 -105.34042 19057 ft 381 kts 244°
2026-05-07 03:17 39.82578 -105.37004 19540 ft 385 kts 244°
2026-05-07 03:17 39.81180 -105.39993 20016 ft 388 kts 244°
2026-05-07 03:17 39.79774 -105.43008 20473 ft 391 kts 244°
2026-05-07 03:18 39.78360 -105.46047 20902 ft 395 kts 244°
2026-05-07 03:18 39.76936 -105.49119 21357 ft 398 kts 244°
2026-05-07 03:18 39.75504 -105.52211 21795 ft 401 kts 244°
2026-05-07 03:18 39.74060 -105.55332 22199 ft 404 kts 244°
2026-05-07 03:19 39.72607 -105.58467 22589 ft 407 kts 244°
2026-05-07 03:19 39.71136 -105.61630 22983 ft 410 kts 244°
2026-05-07 03:19 39.69720 -105.64852 23409 ft 410 kts 250°
2026-05-07 03:19 39.68704 -105.68292 23737 ft 408 kts 260°
2026-05-07 03:20 39.68130 -105.71916 23945 ft 411 kts 266°
2026-05-07 03:20 39.67647 -105.75586 24268 ft 414 kts 266°
2026-05-07 03:20 39.67154 -105.79290 24625 ft 417 kts 266°
2026-05-07 03:20 39.66651 -105.83010 24988 ft 419 kts 265°
2026-05-07 03:21 39.66140 -105.86744 25347 ft 422 kts 265°
2026-05-07 03:21 39.65626 -105.90454 25704 ft 423 kts 265°
2026-05-07 03:21 39.65093 -105.94269 26050 ft 425 kts 265°
2026-05-07 03:21 39.64572 -105.98005 26385 ft 428 kts 265°
2026-05-07 03:22 39.64036 -106.01866 26754 ft 430 kts 265°
2026-05-07 03:22 39.63506 -106.05688 27102 ft 432 kts 265°
2026-05-07 03:22 39.62981 -106.09460 27430 ft 434 kts 265°
2026-05-07 03:22 39.62439 -106.13345 27770 ft 436 kts 265°
2026-05-07 03:23 39.61896 -106.17236 28144 ft 439 kts 266°
2026-05-07 03:23 39.61351 -106.21136 28482 ft 441 kts 265°
2026-05-07 03:23 39.60801 -106.25065 28817 ft 444 kts 266°
2026-05-07 03:23 39.60247 -106.29010 29134 ft 446 kts 265°
2026-05-07 03:24 39.59686 -106.32984 29453 ft 448 kts 265°
2026-05-07 03:24 39.59125 -106.36965 29819 ft 449 kts 265°
2026-05-07 03:24 39.58562 -106.40936 30260 ft 448 kts 265°
2026-05-07 03:24 39.57996 -106.44904 30617 ft 447 kts 265°
2026-05-07 03:25 39.57430 -106.48866 31022 ft 446 kts 265°
2026-05-07 03:25 39.56865 -106.52814 31449 ft 445 kts 265°
2026-05-07 03:25 39.56300 -106.56752 31885 ft 444 kts 265°
2026-05-07 03:25 39.55733 -106.60673 32320 ft 442 kts 265°
2026-05-07 03:26 39.55166 -106.64583 32769 ft 441 kts 265°
2026-05-07 03:26 39.54377 -106.68445 33213 ft 446 kts 256°
2026-05-07 03:26 39.53227 -106.72198 33629 ft 447 kts 254°
2026-05-07 03:26 39.52058 -106.75918 34056 ft 446 kts 254°
2026-05-07 03:27 39.50881 -106.79649 34211 ft 446 kts 254°
2026-05-07 03:27 39.48521 -106.87126 34233 ft 449 kts 254°
2026-05-07 03:28 39.46179 -106.94565 34227 ft 449 kts 254°
2026-05-07 03:28 39.43815 -107.02051 34205 ft 449 kts 254°
2026-05-07 03:29 39.41447 -107.09526 34180 ft 449 kts 254°
2026-05-07 03:29 39.39067 -107.16996 34167 ft 449 kts 254°
2026-05-07 03:30 39.36602 -107.24434 34150 ft 451 kts 251°
2026-05-07 03:30 39.33881 -107.31752 34147 ft 452 kts 250°
2026-05-07 03:31 39.31093 -107.39035 34170 ft 453 kts 250°
2026-05-07 03:31 39.28344 -107.46342 34180 ft 452 kts 250°
2026-05-07 03:32 39.25644 -107.53616 34183 ft 452 kts 251°
2026-05-07 03:32 39.22917 -107.60941 34188 ft 452 kts 250°
2026-05-07 03:33 39.20176 -107.68250 34185 ft 453 kts 250°
2026-05-07 03:33 39.17430 -107.75567 34185 ft 453 kts 250°
2026-05-07 03:34 39.14676 -107.82875 34177 ft 453 kts 250°
2026-05-07 03:34 39.11916 -107.90181 34173 ft 454 kts 250°
2026-05-07 03:35 39.09164 -107.97437 34184 ft 454 kts 250°
2026-05-07 03:35 39.06394 -108.04743 34191 ft 454 kts 250°
2026-05-07 03:36 39.03617 -108.12047 34196 ft 454 kts 250°
2026-05-07 03:36 39.00835 -108.19345 34194 ft 454 kts 250°
2026-05-07 03:37 38.98046 -108.26635 34172 ft 454 kts 249°
2026-05-07 03:37 38.95259 -108.33916 34173 ft 454 kts 249°
2026-05-07 03:38 38.92471 -108.41191 34181 ft 454 kts 249°
2026-05-07 03:38 38.89676 -108.48461 34178 ft 454 kts 249°
2026-05-07 03:39 38.86871 -108.55715 34179 ft 453 kts 249°
2026-05-07 03:39 38.84061 -108.62959 34162 ft 453 kts 249°
2026-05-07 03:40 38.81254 -108.70187 34155 ft 453 kts 249°
2026-05-07 03:40 38.78443 -108.77415 34147 ft 453 kts 249°
2026-05-07 03:41 38.75631 -108.84647 34149 ft 453 kts 249°
2026-05-07 03:41 38.72808 -108.91873 34142 ft 453 kts 249°
2026-05-07 03:42 38.69986 -108.99084 34139 ft 453 kts 249°
2026-05-07 03:42 38.67165 -109.06295 34138 ft 454 kts 249°
2026-05-07 03:43 38.64345 -109.13462 34134 ft 454 kts 248°
2026-05-07 03:43 38.61498 -109.20670 34139 ft 454 kts 248°
2026-05-07 03:44 38.58644 -109.27874 34133 ft 454 kts 248°
2026-05-07 03:44 38.55796 -109.35079 34127 ft 454 kts 248°
2026-05-07 03:45 38.52945 -109.42285 34122 ft 455 kts 248°
2026-05-07 03:45 38.50075 -109.49491 34128 ft 455 kts 248°
2026-05-07 03:46 38.47195 -109.56687 34125 ft 455 kts 248°
2026-05-07 03:46 38.44325 -109.63880 34117 ft 455 kts 248°
2026-05-07 03:47 38.41446 -109.71078 34112 ft 455 kts 248°
2026-05-07 03:47 38.38556 -109.78262 34080 ft 457 kts 248°
2026-05-07 03:48 38.35640 -109.85505 34074 ft 461 kts 248°
2026-05-07 03:48 38.32706 -109.92776 34092 ft 461 kts 247°
2026-05-07 03:49 38.29763 -110.00036 34095 ft 461 kts 247°
2026-05-07 03:49 38.26888 -110.07315 34095 ft 459 kts 250°
2026-05-07 03:50 38.24329 -110.14747 34087 ft 458 kts 252°
2026-05-07 03:50 38.21887 -110.22165 34084 ft 458 kts 252°
2026-05-07 03:51 38.19352 -110.29599 34077 ft 459 kts 251°
2026-05-07 03:51 38.16744 -110.37016 34078 ft 460 kts 250°
2026-05-07 03:52 38.14141 -110.44435 34083 ft 460 kts 250°
2026-05-07 03:52 38.11543 -110.51853 34085 ft 460 kts 250°
2026-05-07 03:53 38.08941 -110.59272 34083 ft 460 kts 250°
2026-05-07 03:53 38.06329 -110.66679 34074 ft 460 kts 250°
2026-05-07 03:54 38.03713 -110.74094 34066 ft 460 kts 250°
2026-05-07 03:54 38.01094 -110.81504 34062 ft 460 kts 250°
2026-05-07 03:55 37.98473 -110.88902 34064 ft 460 kts 250°
2026-05-07 03:55 37.95840 -110.96308 34063 ft 461 kts 250°
2026-05-07 03:56 37.93198 -111.03699 34060 ft 461 kts 250°
2026-05-07 03:56 37.90560 -111.11098 34067 ft 461 kts 250°
2026-05-07 03:57 37.87918 -111.18487 34059 ft 461 kts 250°
2026-05-07 03:57 37.85265 -111.25866 34049 ft 461 kts 250°
2026-05-07 03:58 37.82608 -111.33243 34057 ft 461 kts 250°
2026-05-07 03:58 37.81283 -111.36917 33630 ft 459 kts 250°
2026-05-07 03:58 37.79956 -111.40597 32892 ft 460 kts 250°
2026-05-07 03:58 37.78623 -111.44291 32269 ft 461 kts 250°
2026-05-07 03:59 37.77290 -111.47987 32046 ft 464 kts 249°
2026-05-07 03:59 37.74596 -111.55439 32050 ft 467 kts 249°
2026-05-07 04:00 37.71883 -111.62900 32044 ft 467 kts 249°
2026-05-07 04:00 37.69175 -111.70300 32061 ft 468 kts 249°
2026-05-07 04:01 37.66447 -111.77759 32125 ft 467 kts 249°
2026-05-07 04:01 37.63721 -111.85216 32151 ft 468 kts 249°
2026-05-07 04:02 37.61433 -111.91461 32182 ft 468 kts 249°
2026-05-07 04:02 37.58697 -111.98908 32215 ft 468 kts 249°
2026-05-07 04:03 37.55944 -112.06357 32224 ft 469 kts 249°
2026-05-07 04:03 37.53149 -112.13732 32222 ft 471 kts 243°
2026-05-07 04:04 37.49595 -112.20698 32187 ft 473 kts 240°